TimeEET,TemperatureF,Dew PointF,Humidity,Sea Level PressureIn,VisibilityMPH,Wind Direction,Wind SpeedMPH,Gust SpeedMPH,PrecipitationIn,Events,Conditions,WindDirDegrees,DateUTC
12:50 AM,32.0,32.0,100,30.06,-9999.0,SE,2.3,-,N/A,Snow,Light Snow,130,2013-02-23 22:50:00
1:50 AM,32.0,32.0,100,30.04,2.2,East,1.2,-,N/A,Snow,Light Snow,90,2013-02-23 23:50:00
2:00 AM,32,32,100,,2,East,1.2,,,Snow,Light Snow,90,2013-02-24 00:00:00
2:50 AM,33.8,33.8,100,30.06,3.7,Calm,Calm,-,N/A,,Mostly Cloudy,0,2013-02-24 00:50:00
3:50 AM,32.0,32.0,100,30.06,3.7,NE,3.5,-,N/A,Snow,Light Snow,50,2013-02-24 01:50:00
4:50 AM,33.8,32.0,93,30.06,3.7,East,2.3,-,N/A,,Mostly Cloudy,80,2013-02-24 02:50:00
5:50 AM,33.8,33.8,100,30.06,1.6,NNE,4.6,-,N/A,,Mostly Cloudy,30,2013-02-24 03:50:00
6:50 AM,33.8,33.8,100,30.09,-9999.0,East,3.5,-,N/A,,Mostly Cloudy,90,2013-02-24 04:50:00
7:50 AM,35.6,32.0,87,30.12,3.7,East,5.8,-,N/A,,Mostly Cloudy,80,2013-02-24 05:50:00
8:00 AM,35,32,83,,4,East,5.8,,,,Mist,80,2013-02-24 06:00:00
8:50 AM,37.4,32.0,81,30.12,3.7,ESE,4.6,-,N/A,,Mostly Cloudy,110,2013-02-24 06:50:00
9:50 AM,39.2,33.8,81,30.12,5.0,West,5.8,-,N/A,,Mostly Cloudy,260,2013-02-24 07:50:00
10:50 AM,39.2,32.0,75,30.12,5.0,NW,6.9,-,N/A,,Mostly Cloudy,320,2013-02-24 08:50:00
11:50 AM,39.2,30.2,70,30.12,5.0,WNW,5.8,-,N/A,,Mostly Cloudy,290,2013-02-24 09:50:00
12:50 PM,41.0,30.2,65,30.12,5.0,WNW,6.9,-,N/A,,Mostly Cloudy,290,2013-02-24 10:50:00
1:50 PM,39.2,32.0,75,30.15,5.0,WNW,6.9,-,N/A,,Mostly Cloudy,290,2013-02-24 11:50:00
2:00 PM,39,32,66,,5,WNW,6.9,,,,Mostly Cloudy,290,2013-02-24 12:00:00
2:50 PM,39.2,30.2,70,30.15,5.0,WNW,8.1,-,N/A,,Mostly Cloudy,290,2013-02-24 12:50:00
3:50 PM,37.4,32.0,81,30.18,4.3,NW,6.9,-,N/A,,Mostly Cloudy,320,2013-02-24 13:50:00
4:50 PM,37.4,30.2,75,30.18,4.3,NNW,5.8,-,N/A,,Mostly Cloudy,330,2013-02-24 14:50:00
5:50 PM,33.8,30.2,87,30.21,4.3,North,2.3,-,N/A,,Mostly Cloudy,10,2013-02-24 15:50:00
6:50 PM,35.6,28.4,75,30.24,4.3,Variable,2.3,-,N/A,,Mostly Cloudy,0,2013-02-24 16:50:00
7:50 PM,35.6,30.2,81,30.24,4.3,NNW,4.6,-,N/A,,Mostly Cloudy,340,2013-02-24 17:50:00
8:00 PM,35,29,73,,4,NNW,4.6,,,,Mist,340,2013-02-24 18:00:00
8:50 PM,33.8,30.2,87,30.27,2.5,ENE,3.5,-,N/A,,Mostly Cloudy,70,2013-02-24 18:50:00
9:50 PM,32.0,28.4,87,30.27,2.5,ENE,3.5,-,N/A,,Mostly Cloudy,70,2013-02-24 19:50:00
10:50 PM,30.2,28.4,93,30.27,2.5,Variable,2.3,-,N/A,,Scattered Clouds,0,2013-02-24 20:50:00
11:50 PM,28.4,26.6,93,30.27,2.5,Variable,2.3,-,N/A,,Scattered Clouds,0,2013-02-24 21:50:00